Вернуться в каталог

STARLINK-4746

АктивенСвязьVLEO
NORAD 53846·PAYLOAD·🇺🇸 United States

Запущен Sep 19, 2022 с Cape Canaveral Space Force Station

Loading…

Ближайшие Пролёты (ближайшие 24 часа)

TLE

СвежийSource: CelesTrak SupGP

Эпоха: Sep 14, 2026, 21:57 UTC

1 53846C 22114AE  26257.91506944  .00312330  00000+0  18627-1 0  2579
2 53846  53.1593 163.8245 0001369  88.5124 178.2369 15.10504668    13

Отслеживайте STARLINK-4746 в реальном времени с AllMySat

Download on the App Store